Location: Janeiro
(34.9957°N, 76.7652°W)
Time: 23:38:05
(UTC+00:00)

CZ-4C R/B - Pass Details

Date: 14 December 2019
Orbit: 646 x 1356 km, 63.4° (Epoch: 24 January)

Event Time Altitude Azimuth Distance (km) Brightness Sun altitude
Rises 22:54:30 0° 193° (SSW) 2,971 5.5 -11.7°
Reaches altitude 10° 22:56:46 10° 186° (S) 2,100 4.6 -12.1°
Maximum altitude 23:01:15 45° 114° (ESE) 986 2.3 -13.0°
Enters shadow 23:05:00 17° 49° (NE) 1,890 3.5 -13.7°
